User: anonymous   Login
Location: Caltech
(34.1382°N, 118.1253°W)
Time: 20:27:01
(UTC-07:00)
Language:

ITAMSAT 1 - Orbit

View from above orbital plane
View from above orbital plane
View from above satellite
View from above satellite

Ground track
Ground track

The orbit data is extracted from the following two-line orbital elements,

1 22826U 93061D   16269.93560832  .00000035  00000-0  31085-4 0  9998
2 22826  98.7654 226.9744 0009394  20.9608 339.1957 14.30295188199800
Epoch (UTC): 25 September 2016 22:27:16
Eccentricity: 0.0009394
inclination: 98.7654°
perigee height: 784 km
apogee height: 797 km
right ascension of ascending node: 226.9744°
argument of perigee: 20.9608°
revolutions per day: 14.30295188
mean anomaly at epoch: 339.1957°
orbit number at epoch: 19980

The dashed part of the orbit path shows where the satellite is in the earth's shadow,  

DLR